Date String (YYYY-MM-DD hh:mm:ss) UTC,Instrument flags,absolute air pressure of the measurement (hPa),sample flow rate (lpm),inlet stack bypass flow (lpm),air temperature of the measurement (°C),ambient temperature measured by the external sensor (°C),aerosol sample conditioner tube jacket temperature (°C),OPC LED temperature (°C),internal box temperature (°C),relative humidity of the measurement (%),span deviation,mass concentration of particles derived from Lorenz-Mie calculation of OPC scattering (μg/m³),mass concentration of particles derived from Lorenz-Mie calculation of OPC scattering (μg/m³),mass concentration of particles derived from Lorenz-Mie calculation of OPC scattering (μg/m³)
DateTimeUTC,F1_M11,P_M11,Q1_M11,Q2_M11,T1_M11,T2_M11,T3_M11,T4_M11,T5_M11,U1_M11,ZSPAN_M11,X2_M11,X0_M11,X1_M11
2023-12-30 22:00:00,SystemResetWarning,0828.6,5.01,000.00,026.3,022.2,000.0,034.7,027.1,7.5,0000.0,0005.45,0009.67,0005.00
2023-12-30 22:01:00,SystemResetWarning,0828.6,4.99,000.00,026.2,022.6,000.0,034.7,027.0,7.6,0000.0,0005.42,0009.70,0004.96
2023-12-30 22:02:00,SystemResetWarning,0828.6,5.00,000.00,026.1,023.1,000.0,034.6,027.1,7.6,0000.0,0005.39,0009.15,0004.94
2023-12-30 22:03:00,SystemResetWarning,0828.6,5.00,000.00,026.1,023.5,000.0,034.6,027.2,7.6,0000.0,0005.38,0009.33,0004.93
2023-12-30 22:04:00,SystemResetWarning,0828.6,5.00,000.00,026.1,023.8,000.0,034.5,027.3,7.6,0000.0,0005.34,0009.25,0004.91
2023-12-30 22:05:00,SystemResetWarning,0828.6,4.98,000.00,026.1,024.2,000.0,034.5,027.4,7.6,0000.0,0005.33,0009.43,0004.90
2023-12-30 22:06:00,SystemResetWarning,0828.6,5.00,000.00,026.1,024.4,000.0,034.5,027.5,7.5,0000.0,0005.31,0009.59,0004.87
2023-12-30 22:07:00,SystemResetWarning,0828.6,5.01,000.00,026.2,024.7,000.0,034.5,027.6,7.6,0000.0,0005.28,0009.62,0004.83
2023-12-30 22:08:00,SystemResetWarning,0828.6,5.01,000.00,026.2,024.9,000.0,034.4,027.6,7.5,0000.0,0005.22,0009.72,0004.80
2023-12-30 22:09:00,SystemResetWarning,0828.6,4.99,000.00,026.2,025.0,000.0,034.4,027.7,7.6,0000.0,0005.23,0010.73,0004.79
2023-12-30 22:10:00,SystemResetWarning,0828.6,4.99,000.00,026.3,025.2,000.0,034.5,027.7,7.6,0000.0,0005.24,0010.84,0004.79
2023-12-30 22:11:00,SystemResetWarning,0828.6,5.00,000.00,026.3,025.3,000.0,034.5,027.8,7.5,0000.0,0005.24,0010.94,0004.79
2023-12-30 22:12:00,SystemResetWarning,0828.6,5.00,000.00,026.3,025.4,000.0,034.5,027.9,7.5,0000.0,0005.26,0010.88,0004.80
2023-12-30 22:13:00,SystemResetWarning,0828.6,5.00,000.00,026.4,025.5,000.0,034.5,027.9,7.5,0000.0,0005.28,0010.97,0004.79
2023-12-30 22:14:00,SystemResetWarning,0828.6,5.00,000.00,026.4,025.6,000.0,034.5,028.0,7.3,0000.0,0005.25,0010.66,0004.77
2023-12-30 22:15:00,SystemResetWarning,0828.6,5.01,000.00,026.5,025.6,000.0,034.5,028.0,7.3,0000.0,0005.22,0010.50,0004.74
2023-12-30 22:16:00,SystemResetWarning,0828.6,5.00,000.00,026.5,025.7,000.0,034.5,028.0,7.3,0000.0,0005.21,0010.75,0004.72
2023-12-30 22:17:00,SystemResetWarning,0828.6,5.01,000.00,026.5,025.8,000.0,034.6,028.1,7.3,0000.0,0005.17,0010.58,0004.70
2023-12-30 22:18:00,SystemResetWarning,0828.6,5.00,000.00,026.6,025.8,000.0,034.6,028.1,7.3,0000.0,0005.16,0011.33,0004.70
2023-12-30 22:19:00,SystemResetWarning,0828.6,5.00,000.00,026.6,025.9,000.0,034.6,028.1,7.2,0000.0,0005.13,0011.23,0004.69
2023-12-30 22:20:00,SystemResetWarning,0828.6,4.98,000.00,026.6,024.7,000.0,034.7,028.0,7.2,0000.0,0005.12,0010.09,0004.68
2023-12-30 22:21:00,SystemResetWarning,0828.6,5.01,000.00,026.4,023.0,000.0,034.6,027.6,7.3,0000.0,0005.12,0010.15,0004.67
2023-12-30 22:22:00,SystemResetWarning,0828.6,5.02,000.00,026.3,022.8,000.0,034.6,027.4,7.3,0000.0,0005.13,0010.35,0004.64
2023-12-30 22:23:00,SystemResetWarning,0828.6,5.00,000.00,026.2,023.0,000.0,034.5,027.2,7.4,0000.0,0005.06,0010.27,0004.61
2023-12-30 22:24:00,SystemResetWarning,0828.6,5.00,000.00,026.1,023.4,000.0,034.5,027.2,7.4,0000.0,0004.98,0010.10,0004.55
2023-12-30 22:25:00,SystemResetWarning,0828.6,5.01,000.00,026.1,023.8,000.0,034.5,027.3,7.4,0000.0,0004.91,0010.23,0004.50
2023-12-30 22:26:00,SystemResetWarning,0828.6,4.99,000.00,026.1,024.1,000.0,034.4,027.4,7.4,0000.0,0004.84,0010.53,0004.44
2023-12-30 22:27:00,SystemResetWarning,0828.6,4.99,000.00,026.1,024.4,000.0,034.4,027.5,7.4,0000.0,0004.79,0010.80,0004.38
2023-12-30 22:28:00,SystemResetWarning,0828.6,5.01,000.00,026.2,024.6,000.0,034.4,027.6,7.4,0000.0,0004.79,0010.73,0004.34
2023-12-30 22:29:00,SystemResetWarning,0828.7,5.00,000.00,026.2,024.8,000.0,034.4,027.7,7.4,0000.0,0004.71,0009.90,0004.29
2023-12-30 22:30:00,SystemResetWarning,0828.7,5.00,000.00,026.2,025.0,000.0,034.4,027.7,7.4,0000.0,0004.68,0009.55,0004.24
2023-12-30 22:31:00,SystemResetWarning,0828.7,5.01,000.00,026.3,025.2,000.0,034.4,027.8,7.4,0000.0,0004.63,0009.40,0004.20
2023-12-30 22:32:00,SystemResetWarning,0828.7,5.00,000.00,026.3,025.3,000.0,034.4,027.8,7.4,0000.0,0004.56,0009.44,0004.15
2023-12-30 22:33:00,SystemResetWarning,0828.7,4.99,000.00,026.4,025.4,000.0,034.4,027.9,7.4,0000.0,0004.50,0009.57,0004.11
2023-12-30 22:34:00,SystemResetWarning,0828.7,5.00,000.00,026.4,025.5,000.0,034.5,027.9,7.4,0000.0,0004.50,0009.59,0004.08
2023-12-30 22:35:00,SystemResetWarning,0828.6,4.99,000.00,026.4,025.6,000.0,034.5,028.0,7.5,0000.0,0004.50,0009.72,0004.07
2023-12-30 22:36:00,SystemResetWarning,0828.7,5.00,000.00,026.5,025.7,000.0,034.5,028.0,7.5,0000.0,0004.53,0010.13,0004.08
2023-12-30 22:37:00,SystemResetWarning,0828.7,4.99,000.00,026.5,025.5,000.0,034.5,028.0,7.4,0000.0,0004.54,0009.95,0004.10
2023-12-30 22:38:00,SystemResetWarning,0828.6,5.00,000.00,026.4,023.7,000.0,034.6,027.7,7.4,0000.0,0004.53,0009.25,0004.11
2023-12-30 22:39:00,SystemResetWarning,0828.6,5.00,000.00,026.3,022.7,000.0,034.5,027.4,7.5,0000.0,0004.51,0010.17,0004.12
2023-12-30 22:40:00,SystemResetWarning,0828.7,5.00,000.00,026.1,022.8,000.0,034.5,027.2,7.4,0000.0,0004.54,0010.83,0004.14
2023-12-30 22:41:00,SystemResetWarning,0828.7,5.01,000.00,026.0,023.1,000.0,034.4,027.1,7.5,0000.0,0004.57,0010.90,0004.17
2023-12-30 22:42:00,SystemResetWarning,0828.7,4.99,000.00,026.0,023.5,000.0,034.4,027.2,7.6,0000.0,0004.58,0010.92,0004.18
2023-12-30 22:43:00,SystemResetWarning,0828.7,4.99,000.00,026.0,023.9,000.0,034.3,027.3,7.6,0000.0,0004.59,0010.89,0004.19
2023-12-30 22:44:00,SystemResetWarning,0828.7,5.01,000.00,026.0,024.2,000.0,034.3,027.4,7.6,0000.0,0004.58,0010.45,0004.21
2023-12-30 22:45:00,SystemResetWarning,0828.7,5.00,000.00,026.1,024.4,000.0,034.3,027.5,7.6,0000.0,0004.58,0010.44,0004.21
2023-12-30 22:46:00,SystemResetWarning,0828.8,5.01,000.00,026.1,024.7,000.0,034.3,027.5,7.6,0000.0,0004.59,0010.43,0004.23
2023-12-30 22:47:00,SystemResetWarning,0828.8,4.99,000.00,026.1,024.9,000.0,034.3,027.6,7.6,0000.0,0004.60,0009.85,0004.25
2023-12-30 22:48:00,SystemResetWarning,0828.8,4.99,000.00,026.2,025.0,000.0,034.3,027.7,7.6,0000.0,0004.64,0009.95,0004.28
2023-12-30 22:49:00,SystemResetWarning,0828.8,4.99,000.00,026.2,025.2,000.0,034.3,027.7,7.6,0000.0,0004.72,0010.72,0004.32
2023-12-30 22:50:00,SystemResetWarning,0828.8,5.00,000.00,026.3,025.3,000.0,034.3,027.8,7.6,0000.0,0004.75,0010.33,0004.34
2023-12-30 22:51:00,SystemResetWarning,0828.8,5.01,000.00,026.3,025.4,000.0,034.4,027.9,7.6,0000.0,0004.78,0010.31,0004.36
2023-12-30 22:52:00,SystemResetWarning,0828.8,5.02,000.00,026.3,025.5,000.0,034.4,027.9,7.6,0000.0,0004.79,0010.28,0004.37
2023-12-30 22:53:00,SystemResetWarning,0828.8,4.99,000.00,026.4,025.6,000.0,034.4,028.0,7.6,0000.0,0004.84,0010.34,0004.41
2023-12-30 22:54:00,SystemResetWarning,0828.8,5.00,000.00,026.4,025.7,000.0,034.4,028.0,7.6,0000.0,0004.89,0010.44,0004.44
2023-12-30 22:55:00,SystemResetWarning,0828.9,4.99,000.00,026.5,025.6,000.0,034.5,028.0,7.6,0000.0,0004.93,0010.63,0004.46
2023-12-30 22:56:00,SystemResetWarning,0828.9,5.00,000.00,026.4,023.9,000.0,034.5,027.8,7.6,0000.0,0004.96,0010.74,0004.48
2023-12-30 22:57:00,SystemResetWarning,0828.8,5.00,000.00,026.3,022.7,000.0,034.5,027.4,7.7,0000.0,0004.99,0010.91,0004.51
2023-12-30 22:58:00,SystemResetWarning,0828.8,5.00,000.00,026.1,022.7,000.0,034.4,027.1,7.7,0000.0,0005.02,0010.97,0004.51
2023-12-30 22:59:00,SystemResetWarning,0828.9,5.01,000.00,026.0,023.0,000.0,034.4,027.0,7.8,0000.0,0005.02,0011.17,0004.51
